Tracking 27107 objects as of 20-Mar-2023
HD Live streaming from Space Station
objects crossing your sky now

RESURS O1 DEB

Track RESURS O1 DEB now!
10-day predictions


NORAD ID: 47323
Int'l Code: 1994-074DM
Perigee: 487.6 km
Apogee: 495.5 km
Inclination: 97.8 °
Period: 94.3 minutes
Semi major axis: 6862 km
RCS: Unknown
Launch date: November 4, 1994
Source: Commonwealth of Independent States (former USSR) (CIS)
Launch site: TYURATAM MISSILE AND SPACE COMPLEX (TTMTR)

Note: This is SATELLITE DEBRIS
Your satellite tracking list
Your tracking list is empty




NASA's NSSDC Master Catalog

Two Line Element Set (TLE):
1 47323U 94074DM  23077.87086647  .00142599  00000-0  52656-2 0  9994
2 47323  97.8140 133.4142 0005745 260.4350  99.6239 15.27123112120140
Source of the keplerian elements: AFSPC